Location: NJAA Observatory
(40.6819°N, 74.8979°W)
Time: 10:04:03
(UTC-04:00)

Cosmos 1328 Rocket - Visible Passes

Search period start: 28 April 2017 00:00
Search period end: 08 May 2017 00:00
Orbit: 601 x 628 km, 82.5° (Epoch: 26 April)

Date Brightness Start Highest point End Pass type
(mag) Time Alt. Az. Time Alt. Az. Time Alt. Az.
28 Apr 6.8 04:53:41 10° NNE 04:56:23 16° ENE 04:59:04 10° ESE visible
29 Apr 6.0 05:08:46 10° NNE 05:12:32 27° ENE 05:16:18 10° SE visible
30 Apr 4.8 05:24:19 10° N 05:28:36 48° E 05:32:53 10° SSE visible
02 May 6.7 04:19:56 10° NE 04:22:26 15° ENE 04:24:54 10° ESE visible
03 May 6.0 04:34:55 10° NNE 04:38:36 25° ENE 04:42:16 10° SE visible
04 May 4.9 04:50:25 10° N 04:54:41 44° ENE 04:58:56 10° SSE visible
05 May 3.7 05:06:13 10° N 05:10:40 83° E 05:15:06 10° S visible
06 May 6.6 03:46:14 10° NE 03:48:28 14° ENE 03:50:43 10° E visible
07 May 6.0 04:01:05 10° NNE 04:04:40 23° ENE 04:08:14 10° SE visible
